310  
ASUS43 KFSD 300902  
RWRFSD  
 
WEATHER ROUNDUP FOR SE SOUTH DAKOTA/SW MINNESOTA/NW IOWA  
NATIONAL WEATHER SERVICE SIOUX FALLS SD  
400 AM CDT TUE MAY 30 2017  
 
NOTE: "FAIR" INDICATES FEW OR NO CLOUDS BELOW 12,000 FEET WITH NO  
SIGNIFICANT WEATHER AND OR S TO VISIBILITY
.  
 
 
SDZ038>040-050-052>070-301000-  
SOUTHEAST SOUTH DAKOTA  
 
CITY SKY/WX TMP DP RH WIND PRES REMARKS
 
BROOKINGS CLOUDY 49 42 77 W6 29.98S  
CHAMBERLAIN PTCLDY 43 39 88 CALM 30.05S  
HURON CLOUDY 44 38 79 W6 30.00S  
MADISON CLOUDY 50 43 76 W7 29.99S  
MITCHELL PTCLDY 49 40 71 W8 30.02S  
SIOUX FALLS CLOUDY 53 46 77 W5 29.99S  
WINNER FAIR 46 36 68 SW7 30.07S  
YANKTON PTCLDY 51 43 74 W6 30.03R  

 
 
MNZ071-072-080-081-089-090-097-098-301000-  
SOUTHWEST MINNESOTA  
 
CITY SKY/WX TMP DP RH WIND PRES REMARKS
 
FAIRMONT CLOUDY 52 44 74 W12 29.95S  
JACKSON CLOUDY 50 43 76 CALM 29.96S  
LUVERNE CLOUDY 50 41 71 W9 29.99S  
MARSHALL CLOUDY 53 44 71 W15 29.94F  
MONTEVIDEO MOCLDY 52 45 76 NW7 29.93S  
PIPESTONE CLOUDY 50 41 71 W5 29.97S  
REDWOOD FALLS CLEAR 51 43 74 W8 29.92S  
TRACY CLOUDY 53 45 74 W7 29.95S  
WINDOM CLOUDY 52 45 76 W9 29.95S  
WORTHINGTON CLOUDY 49 43 80 W8 29.98S  

 
 
IAZ001>003-012>014-020>022-031-032-NEZ013-014-SDZ071-301000-  
NORTHWEST IOWA  
 
CITY SKY/WX TMP DP RH WIND PRES REMARKS
 
CHEROKEE CLOUDY 50 45 83 SW3 30.00S  
DENISON PTCLDY 50 45 81 CALM 30.03S  
ESTHERVILLE CLOUDY 49 45 86 W9 29.95F  
LE MARS CLOUDY 52 45 76 SW7 30.02S  
ORANGE CITY CLOUDY 52 45 76 W6 30.00S  
SHELDON CLOUDY 54 43 66 W6 29.98S  
SIOUX CITY CLOUDY 50 45 83 CALM 30.02S  
SPENCER MOCLDY 47 43 86 W6 29.98F  
STORM LAKE CLOUDY 52 43 71 W9 30.00S  

 
 
ABBREVIATIONS USED IN REMARKS  
TC - TEMPERATURE IN CELSIUS  
WCI - WIND CHILL INDEX  
HX - HEAT INDEX  
VSB - VISIBILITY  
 
 
 
CLICK HERE TO GO TO PREVIOUS BULLETINS.

The Nexlab SD Page
The Nexlab IA Page
The Nexlab MN Page
The Nexlab NE Page Main Text Page